Regional Weather Roundup
Issued by NWS Columbia, SC

Home | Current Version | Previous Version | Text Only | Print | Product List | Glossary On
Versions: 1 2 3 4 5 6 7 8 9 10 11 12 13 14 15 16 17 18 19 20 21 22 23 24 25 26 27 28 29 30 31 32 33 34 35 36 37 38 39 40 41 42 43 44 45 46 47 48 49 50
000
ASUS42 KCAE 221210
RWRCAE
REGIONAL WEATHER ROUNDUP
NATIONAL WEATHER SERVICE COLUMBIA SC
800 AM EDT SAT JUL 22 2017

NOTE: "FAIR" INDICATES FEW OR NO CLOUDS BELOW 12,000 FEET WITH NO
SIGNIFICANT WEATHER AND/OR OBSTRUCTIONS TO VISIBILITY.

NOT ALL STATIONS ARE QUALITY CONTROLLED BY THE NATIONAL
WEATHER SERVICE. USE DATA WITH CAUTION...ESPECIALLY
DEWPOINT OBSERVATIONS.

SCZ001>056-GAZ040-063>065-077-221300-
...UPSTATE SOUTH CAROLINA...

CITY           SKY/WX    TMP DP  RH WIND       PRES   REMARKS
ANDERSON       SUNNY     75  71  87 S8        30.03R
6HR MIN TEMP:  73; 6HR MAX TEMP:  79;

LIBERTY        SUNNY     74  73  96 CALM      30.02S
6HR MIN TEMP:  70; 6HR MAX TEMP:  76;

SPARTANBURG    SUNNY     73  70  88 CALM      30.01R
CLEMSON        SUNNY     78  76  93 CALM      30.03R
6HR MIN TEMP:  74; 6HR MAX TEMP:  78;

GREENVILLE     SUNNY     79  73  82 W5        30.03R
6HR MIN TEMP:  77; 6HR MAX TEMP:  81;

GREENWOOD      SUNNY     75  69  81 S5        30.04R
6HR MIN TEMP:  71; 6HR MAX TEMP:  76;

GREER          SUNNY     77  72  84 CALM      30.02R
6HR MIN TEMP:  74; 6HR MAX TEMP:  80;

ROCK HILL      MOSUNNY   77  71  82 SW6       30.02R
6HR MIN TEMP:  73; 6HR MAX TEMP:  78;

CHESTER        SUNNY     75  70  83 CALM      30.02R
LAURENS        SUNNY     73  70  88 S7        30.02R


...CENTRAL SOUTH CAROLINA...

CITY           SKY/WX    TMP DP  RH WIND       PRES   REMARKS
COLUMBIA APT   MOSUNNY   76  71  85 SW5       30.02R
6HR MIN TEMP:  74; 6HR MAX TEMP:  78;

COLUMBIA OWENS SUNNY     76  72  87 SW7       30.03R
6HR MIN TEMP:  75; 6HR MAX TEMP:  80;

MCENTIRE ANGB  PTSUNNY   74  74 100 SW3       30.03R
6HR MIN TEMP:  70; 6HR MAX TEMP:  77;

ORANGEBURG     SUNNY     75  72  90 SW3       30.04R
6HR MIN TEMP:  72; 6HR MAX TEMP:  75;

SUMTER SHAW    SUNNY     76  73  90 SW7       30.00R
6HR MIN TEMP:  74; 6HR MAX TEMP:  78;

NEWBERRY       SUNNY     73  70  88 SW8       30.06R
AIKEN          FAIR      72  70  94 S7        30.07R
BARNWELL       FAIR      77  75  94 W3        30.04R
MANNING        FAIR      79  77  94 W15       30.03R
CAMDEN         FAIR      77  73  88 S5        30.02R
LANCASTER      SUNNY     75  75 100 S5        30.01R
WINNSBORO      SUNNY     73  72  94 CALM      30.02R


...EASTERN AND COASTAL SOUTH CAROLINA...

CITY           SKY/WX    TMP DP  RH WIND       PRES   REMARKS
MYRTLE BEACH   SUNNY     81  75  83 SW7       30.04R
N MYRTLE BCH   SUNNY     81  75  82 SW6       30.02R
6HR MIN TEMP:  77; 6HR MAX TEMP:  81;

CONWAY         FAIR      77  75  94 SW5       30.03R FOG
MARION         FAIR      75  73  94 SW6       30.02R
HARTSVILLE     FAIR      73  72  94 S5        30.01R
FLORENCE       SUNNY     77  75  93 SW7       30.01R
6HR MIN TEMP:  75; 6HR MAX TEMP:  78;

DARLINGTON     SUNNY     77  74  90 S7        30.01R
6HR MIN TEMP:  75; 6HR MAX TEMP:  78;

CHARLESTON APT MOSUNNY   79  76  90 SW3       30.03R
6HR MIN TEMP:  75; 6HR MAX TEMP:  79;

MOUNT PLEASANT FAIR      77  77 100 CALM      30.03R
WALTERBORO     SUNNY     75  72  88 CALM      30.05R
BEAUFORT       SUNNY     78  75  90 W3        30.04R
6HR MIN TEMP:  75; 6HR MAX TEMP:  80;



...EASTERN GEORGIA...

CITY           SKY/WX    TMP DP  RH WIND       PRES   REMARKS
AUGUSTA BUSH F SUNNY     76  73  91 CALM      30.03R
6HR MIN TEMP:  72; 6HR MAX TEMP:  76;

AUGUSTA DANIEL SUNNY     75  69  81 SW6       30.04R
6HR MIN TEMP:  74; 6HR MAX TEMP:  78;

THOMSON        SUNNY     73  70  93 W5        30.09R
6HR MIN TEMP:  70; 6HR MAX TEMP:  73;

WASHINGTON     FAIR      75  75 100 S3        30.04R
CLAXTON        FAIR      74  73  96 CALM      30.05R
6HR MIN TEMP:  71; 6HR MAX TEMP:  74;

SYLVANIA       SUNNY     74  74  99 CALM      30.06R
6HR MIN TEMP:  72; 6HR MAX TEMP:  74;

STATESBORO     SUNNY     75  75 100 CALM      30.05R
6HR MIN TEMP:  72; 6HR MAX TEMP:  75;

SAVANNAH       MOSUNNY   75  72  90 SW5       30.04R


...SOUTHERN NORTH CAROLINA...

CITY           SKY/WX    TMP DP  RH WIND       PRES   REMARKS
CHARLOTTE      MOSUNNY   78  71  79 SW5       30.02R
6HR MIN TEMP:  76; 6HR MAX TEMP:  80;

MONROE         SUNNY     76  70  82 SW7       30.00R
6HR MIN TEMP:  73; 6HR MAX TEMP:  77;

ROCKINGHAM     SUNNY     76  75  95 S5        30.00R
RUTHERFORDTON  SUNNY     74  74 100 CALM      30.04R
ASHEVILLE      SUNNY     70  70 100 SW3       30.10S
6HR MIN TEMP:  68; 6HR MAX TEMP:  72;


$$



USA.gov is the U.S. government's official web portal to all federal, state and local government web resources and services.